| time (UTC) | temp F | wind direction | speed knots | gust knots | rain 1hr in | rain 24hr in | rain mn in | humidity % | barometer mb |
| 20260905145321 | 69 | 297 | 10.4 | 0.0 | 0.00 | 0.00 | 0.00 | 65 | 1011.3 |
| 20260905125646 | 70 | 301 | 12.2 | 0.0 | 0.00 | 0.00 | 0.00 | 65 | 1011.3 |
| 20260905125325 | 70 | 301 | 12.2 | 0.0 | 0.00 | 0.00 | 0.00 | 65 | 1011.3 |
| 20260905115330 | 71 | 289 | 12.2 | 0.0 | 0.00 | 0.00 | 0.00 | 65 | 1011.3 |
| 20260905112321 | 69 | 291 | 13.0 | 0.0 | 0.00 | 0.00 | 0.00 | 65 | 1011.3 |
| 20260905102318 | 68 | 290 | 12.2 | 0.0 | 0.00 | 0.00 | 0.00 | 65 | 1011.3 |
| 20260905092319 | 66 | 294 | 11.3 | 0.0 | 0.00 | 0.00 | 0.00 | 65 | 1011.3 |
| 20260905085319 | 65 | 295 | 11.3 | 0.0 | 0.00 | 0.00 | 0.00 | 65 | 1011.3 |
| 20260905065321 | 63 | 264 | 7.0 | 0.0 | 0.00 | 0.00 | 0.00 | 65 | 1011.3 |
| 20260905062319 | 62 | 263 | 6.1 | 0.0 | 0.00 | 0.00 | 0.00 | 65 | 1011.3 |
| 20260905052321 | 62 | 273 | 7.8 | 0.0 | 0.00 | 0.00 | 0.00 | 65 | 1011.3 |
| 20260905045319 | 62 | 276 | 8.7 | 0.0 | 0.00 | 0.00 | 0.00 | 65 | 1011.3 |
| 20260905035327 | 61 | 267 | 7.8 | 0.0 | 0.00 | 0.00 | 0.00 | 65 | 1011.3 |
| 20260905032326 | 61 | 255 | 7.0 | 0.0 | 0.00 | 0.00 | 0.00 | 65 | 1011.3 |
| 20260905025318 | 61 | 255 | 6.1 | 0.0 | 0.00 | 0.00 | 0.00 | 65 | 1011.3 |
| 20260905022318 | 61 | 270 | 6.1 | 0.0 | 0.00 | 0.00 | 0.00 | 65 | 1011.3 |
| 20260905015321 | 61 | 270 | 7.0 | 0.0 | 0.00 | 0.00 | 0.00 | 65 | 1011.3 |
| 20260905012321 | 62 | 279 | 7.8 | 0.0 | 0.00 | 0.00 | 0.00 | 65 | 1011.3 |
| 20260905002318 | 63 | 272 | 9.6 | 0.0 | 0.00 | 0.00 | 0.00 | 65 | 1011.3 |
| 20260904235318 | 63 | 270 | 9.6 | 0.0 | 0.00 | 0.00 | 0.00 | 65 | 1011.3 |
| 20260904232327 | 64 | 267 | 7.8 | 0.0 | 0.00 | 0.00 | 0.00 | 65 | 1011.3 |
| 20260904222319 | 67 | 304 | 9.6 | 0.0 | 0.00 | 0.00 | 0.00 | 65 | 1010.9 |
| 20260904215319 | 68 | 304 | 8.7 | 0.0 | 0.00 | 0.00 | 0.00 | 64 | 1016.3 |
| 20260904212319 | 69 | 303 | 9.6 | 0.0 | 0.00 | 0.00 | 0.00 | 64 | 1016.3 |
| 20260904205322 | 70 | 308 | 10.4 | 0.0 | 0.00 | 0.00 | 0.00 | 64 | 1016.3 |
| 20260904195326 | 73 | 303 | 10.4 | 0.0 | 0.00 | 0.00 | 0.00 | 64 | 1016.3 |
| 20260904192319 | 74 | 246 | 8.7 | 0.0 | 0.00 | 0.00 | 0.00 | 64 | 1016.3 |
| 20260904185319 | 77 | 222 | 11.3 | 0.0 | 0.00 | 0.00 | 0.00 | 64 | 1016.3 |
| 20260904182320 | 76 | 223 | 11.3 | 0.0 | 0.00 | 0.00 | 0.00 | 64 | 1016.3 |
| 20260904175319 | 77 | 227 | 10.4 | 0.0 | 0.00 | 0.00 | 0.00 | 64 | 1016.3 |
| 20260904172319 | 77 | 237 | 9.6 | 0.0 | 0.00 | 0.00 | 0.00 | 64 | 1016.3 |
| 20260904165333 | 78 | 241 | 9.6 | 0.0 | 0.00 | 0.00 | 0.00 | 64 | 1016.3 |
| 20260904162326 | 78 | 243 | 11.3 | 0.0 | 0.00 | 0.00 | 0.00 | 64 | 1016.3 |
| 20260904152320 | 78 | 246 | 10.4 | 0.0 | 0.00 | 0.00 | 0.00 | 64 | 1016.3 |